This is the latest recevied weather packets stored in our database for station/object KA1JKB. If no packets are shown the sender has not sent any weather packets the latest 10 day(s).
| Time | Temp. | Humidity | Pressure | Rain* | Wind** | Luminosity | Snow |
|---|---|---|---|---|---|---|---|
| 1788018533 | 25° C | 58% | 1020.1 hPa | 0 mm | - | 594 W/m² | - |
| 1788018231 | 25° C | 59% | 1020.4 hPa | 0 mm | - | 751 W/m² | - |
| 1788017928 | 24.44° C | 58% | 1020.3 hPa | 0 mm | - | 779 W/m² | - |
| 1788017623 | 25° C | 60% | 1020.4 hPa | 0 mm | - | 759 W/m² | - |
| 1788017320 | 25° C | 59% | 1020.5 hPa | 0 mm | - | 759 W/m² | - |
| 1788017016 | 25° C | 62% | 1020.5 hPa | 0 mm | - | 720 W/m² | - |
| 1788016715 | 25° C | 60% | 1020.6 hPa | 0 mm | - | 713 W/m² | - |
| 1788016414 | 25° C | 60% | 1020.5 hPa | 0 mm | - | 659 W/m² | - |
| 1788016113 | 25° C | 63% | 1020.7 hPa | 0 mm | - | 667 W/m² | - |
| 1788015812 | 25° C | 62% | 1020.7 hPa | 0 mm | - | 691 W/m² | - |
| 1788015508 | 24.44° C | 64% | 1020.6 hPa | 0 mm | - | 639 W/m² | - |
| 1788015203 | 23.89° C | 64% | 1020.7 hPa | 0 mm | - | 567 W/m² | - |
| 1788014901 | 23.89° C | 65% | 1020.5 hPa | 0 mm | - | 622 W/m² | - |
| 1788014596 | 24.44° C | 67% | 1020.6 hPa | 0 mm | - | 635 W/m² | - |
| 1788014291 | 23.89° C | 69% | 1020.5 hPa | 0 mm | - | 570 W/m² | - |
| 1788013987 | 23.89° C | 69% | 1020.6 hPa | 0 mm | - | 544 W/m² | - |
| 1788013681 | 23.33° C | 71% | 1020.6 hPa | 0 mm | - | 546 W/m² | - |
| 1788013381 | 22.78° C | 73% | 1020.4 hPa | 0 mm | - | 528 W/m² | - |
| 1788013080 | 22.78° C | 72% | 1020.2 hPa | 0 mm | - | 532 W/m² | - |
| 1788012779 | 22.22° C | 75% | 1020 hPa | 0 mm | - | 114 W/m² | - |
| 1788012475 | 22.22° C | 74% | 1020.3 hPa | 0 mm | - | 504 W/m² | - |
| 1788012174 | 21.67° C | 73% | 1020.2 hPa | 0 mm | - | 477 W/m² | - |
| 1788011873 | 21.67° C | 75% | 1020.2 hPa | 0 mm | - | 480 W/m² | - |
| 1788011572 | 21.11° C | 78% | 1020.2 hPa | 0 mm | - | 107 W/m² | - |
| 1788011268 | 21.11° C | 77% | 1020.1 hPa | 0 mm | - | 111 W/m² | - |
* Rain latest hour (hover to see other rain measurements)
** Current wind speed in m/s (hover to see current wind gust speed)